Showing default

FLOCK 4G 3, 62639

Orbit data source: Space-Track

FLOCK 4G 3, 62639 is a payload satellite owned by Planet (US) in SSO that was launched on Tue, 14 Jan 2025 UTC via an FALCON 9 launch vehicle from the Air Force Western Test Range (AFWTR). Payload-class satellites include a variety of spacecraft equipped with specific instruments for various scientific and technological missions. These include communications satellites like Starlink; space stations such as the ISS; scientific satellites like the Hubble; Earth observation satellites from companies like Planet Labs, Umbra, and HawkEye 360; GPS; miniature CubeSats for education and research; and military/defense satellites.

Loading next visibility...
Identifier
62639, 2025-009AG
Orbit
SSO
Country
Flag of USUS
Related business
Manufacturer
Planet
Mission
Operational Commercial Imaging
Bus & Motor
CUBESAT 3U, Unknown motor
Mass
5.7 kg wet, 5.7 kg dry
Launch date (UTC)
2025-01-14 (1 year ago)
Launch vehicle
FALCON 9
Launch site
Air Force Western Test Range (AFWTR)
Object type
Payload
Rocket body
Debris
Shape & HBR
Box + 2 Pan, 1.0 m
Radar Cross Section
0.072 m², Medium (>0.1 m² and < 1m²)

Expand to show TLE details & history
Last TLE update: 16 hours ago

TLE from 16 hours ago
0 FLOCK 4G 3
1 62639U 25009AG  26171.20089561  .00007900  00000-0  27979-3 0  9993
2 62639  97.4023 253.1959 0001212 292.0344  68.0768 15.29391193 79360
Epoch: 2026-06-20T04:49Z
TLE epoch observation values (Epoch: 2026-06-20T04:49:17.380Z)
Latitude
0.00002°
Longitude
-87.54544°
Altitude
480.424 km
Speed
7.625 km/s
True Right ascension
16h 52m 47s
True Declination
0° 00' 00"
Sunlit
Object was in full shadow at epoch
Visualization orbit readout
Latitude
Unknown
Longitude
Unknown
Altitude
Unknown
Speed
Unknown
Apparent Right ascension
Unknown
Apparent Declination
Unknown
Sunlit
N/A
Visualization observer readout
Local Sidereal Time
07:23:24
Azimuth
Unknown
Elevation
Unknown
Doppler factor
Unknown
Orbital elements
Apogee altitude
475.415 km
Perigee altitude
473.754 km
Semi-major axis
6,852.721 km
Eccentricity
0.00012
Inclination
97.4023°
RAAN
253.1959°
Arg. of periapsis
292.0344°
True anomaly
68.08968°
Mean anomaly
68.0768°
Eccentric anomaly
68.08324°
Mean motion
3.82603 °/min
Orbital period
94.09 mins
BSTAR
0.00027979
Loading maneuver chart data...
Computing Atmospheric mass density...
Loading historical data...
Loading historical data...
Loading historical data...
Loading historical data...
Loading historical data...
Loading historical data...
Loading historical data...

Documentation

Showing up to 5 results
|